This demonstration page uses our WeatherBlox Daily Observations layout. Learn more.

Left ArrowRight Arrow

38.89511, -77.03637

Hourly Observations for April 19, 2019

Temp ( °F °C ) Dew Point ( °F °C ) Humidity (%) Winds ( mph kmh ) Pressure ( in mb ) Visibility ( mi km ) Precip ( " mm )
12:52 am 00:52 Cloudy 70 21.1 57 13.9 64 64 S 17 28 29.82 1010 10 16 N/A
1:52 am 01:52 Mostly Cloudy 69 20.6 58 14.4 68 68 S 17 28 29.80 1009 10 16 N/A
2:52 am 02:52 Cloudy 69 20.6 58 14.4 68 68 S 18 30 29.80 1009 10 16 N/A
3:52 am 03:52 Cloudy 68 20 58 14.4 70 70 S 17 28 29.79 1009 10 16 N/A
4:52 am 04:52 Mostly Cloudy 66 18.9 58 14.4 75 75 S 13 20 29.78 1009 10 16 N/A
5:52 am 05:52 Mostly Cloudy 66 18.9 59 15 78 78 S 15 24 29.76 1008 10 16 N/A
6:05 am 06:05 Mostly Cloudy 67 19.4 59 15 76 76 S 14 22 29.76 1008 10 16 N/A
6:52 am 06:52 Cloudy 67 19.4 59 15 76 76 S 9 15 29.76 1008 10 16 N/A
7:32 am 07:32 Mostly Cloudy 68 20 60 15.6 76 76 S 13 20 29.78 1008 10 16 N/A
7:52 am 07:52 Cloudy 66 18.9 60 15.6 81 81 S 13 20 29.78 1008 10 16 N/A
8:49 am 08:49 Cloudy 68 20 61 16 78 78 S 12 19 29.79 1009 10 16 N/A
8:52 am 08:52 Cloudy 68 20 61 16.1 78 78 S 12 19 29.78 1009 10 16 N/A
9:52 am 09:52 Cloudy 70 21.1 62 16.7 76 76 S 14 22 29.77 1008 10 16 N/A
10:11 am 10:11 Mostly Cloudy 71 21.7 63 17.2 76 76 S 16 26 29.77 1008 10 16 N/A
10:52 am 10:52 Cloudy 72 22.2 63 17.2 73 73 S 14 22 29.76 1008 10 16 N/A
11:52 am 11:52 Cloudy 72 22.2 62 16.7 71 71 S 14 22 29.75 1007 10 16 N/A
12:52 pm 12:52 Cloudy 75 23.9 64 17.8 69 69 S 16 26 29.73 1007 10 16 N/A
1:28 pm 13:28 Cloudy with Light Rain 74 23.3 64 17.8 71 71 S 13 20 29.72 1006 10 16 N/A
1:52 pm 13:52 Cloudy with Light Rain 73 22.8 64 17.8 74 74 S 14 22 29.70 1006 8 13 N/A
2:29 pm 14:29 Cloudy with Rain 72 22.2 65 18.3 79 79 SSE 14 22 29.69 1005 3 5 0.04 1.02
2:42 pm 14:42 Cloudy with Heavy Rain 71 21.7 65 18.3 81 81 S 12 19 29.70 1006 2 3 0.10 2.54
2:52 pm 14:52 Cloudy with Rain 70 21.1 66 18.9 87 87 SSE 12 19 29.69 1005 2 3 0.15 3.81
2:55 pm 14:55 Cloudy with Rain 70 21.1 66 18.9 87 87 S 12 19 29.69 1005 3 5 0.01 0.25
3:05 pm 15:05 Cloudy with Heavy Rain 70 21.1 66 18.9 87 87 S 13 20 29.68 1005 3 4 0.04 1.02
3:18 pm 15:18 Cloudy with Light Rain 71 21.7 66 18.9 84 84 SSE 13 20 29.66 1004 10 16 0.07 1.78
3:52 pm 15:52 Cloudy with Light Rain 72 22.2 67 19.4 84 84 SSE 14 22 29.64 1004 10 16 0.07 1.78
4:16 pm 16:16 Cloudy 73 22.8 66 18.9 79 79 SSE 14 22 29.63 1003 10 16 N/A
4:52 pm 16:52 Cloudy 73 22.8 66 18.9 79 79 SSE 15 24 29.61 1003 10 16 N/A
5:03 pm 17:03 Cloudy 73 22.8 66 18.9 79 79 SSE 17 28 29.61 1003 10 16 N/A
5:52 pm 17:52 Cloudy 73 22.8 65 18.3 76 76 SSE 18 30 29.60 1003 10 16 N/A
6:52 pm 18:52 Cloudy with Light Rain 71 21.7 65 18.3 81 81 S 20 31 29.61 1003 9 14 0.02 0.51
7:23 pm 19:23 Cloudy 72 22.2 66 18.9 82 82 SSE 13 20 29.61 1003 10 16 N/A
7:52 pm 19:52 Cloudy 72 22.2 66 18.9 82 82 SSE 17 28 29.60 1002 10 16 N/A
8:00 pm 20:00 Cloudy 72 22.2 66 18.9 82 82 SSE 18 30 29.60 1002 10 16 N/A
8:13 pm 20:13 Cloudy with Thunderstorms 72 22.2 66 18.9 82 82 SSE 17 28 29.60 1002 10 16 N/A
8:24 pm 20:24 Cloudy with Light Rain 72 22.2 66 18.9 82 82 SSE 16 26 29.60 1002 10 16 N/A
8:37 pm 20:37 Cloudy with Nearby Thunderstorms 72 22.2 66 18.9 82 82 SSE 13 20 29.60 1002 9 14 0.02 0.51
8:52 pm 20:52 Cloudy with Rain 71 21.7 66 18.9 84 84 S 10 17 29.60 1003 7 11 0.04 1.02
9:43 pm 21:43 Cloudy 71 21.7 65 18.3 81 81 SSE 14 22 29.60 1002 10 16 0.03 0.76
9:52 pm 21:52 Cloudy 71 21.7 66 18.9 84 84 SSE 12 19 29.60 1002 10 16 0.03 0.76
10:52 pm 22:52 Cloudy 70 21.1 64 17.8 82 82 SSE 14 22 29.60 1002 10 16 N/A

Powered by AerisWeather